Preview of NWS' New Version of Forecast
This preview is not operational and should not be used for support decisions.
Latest weather observations around

Greenville (KGNR)

Using English Units (Switch to International System of Units)
Date/ Time (EDT) Wind (mph) Vis. (mi) Weather Sky Cond. Temp (°F) Rel. Humidity Wind Chill (°F) Heat Index (°F) Pressure Precip. (in)
Air Dwpt 6 hour Altimeter (inHg) Sea level (inHg) 1 hr 3 hr 6 hr
Max Min
May 26 03:56 6   Clear   62 59     90%     29.59 29.58      
May 26 02:56 6   Clear   62 59     90%     29.61 29.59      
May 26 01:56 NW 10   Clear   62 58     86%     29.62 29.6     0
May 26 00:56 NW 10   Clear   64 55     73%     29.63 29.61 0    
May 25 23:56 WNW 5   Clear   68 57     68%     29.64 29.62      
May 25 22:56 WNW 5   Clear   69 57     65%     29.62 29.6      
May 25 21:56 3   Clear   69 57     65%     29.63 29.61      
May 25 20:56 Calm   Clear   66 53     63%     29.63 29.61      
May 25 19:56 NNW 14   Clear   73 56     55%   73 29.64 29.62      
May 25 18:56 7   Clear   74 54     50%   73 29.61 29.59      
May 25 17:56 WNW 8   Clear   77 52     42%   76 29.58 29.56      
May 25 16:56 W 8   Clear   79 51     38%   78 29.58 29.57      
May 25 15:56 WNW 8   Clear   81 49     33%   80 29.59 29.58      
May 25 14:56 WNW 11   Clear   82 47     29%   80 29.59 29.59      
May 25 13:56 WNW 17   Clear   82 47     29%   80 29.6 29.59      
May 25 12:56 WNW 13   Clear   81 48     32%   80 29.62 29.61      
May 25 11:56 W 8   Clear   80 49     34%   79 29.64 29.63      
May 25 10:56 W 8   Clear   77 49     37%   76 29.66 29.65      
May 25 09:56     Clear   75 49     40%   74 29.66 29.65      
May 25 08:56 7   Clear   72 48     43%   71 29.67 29.66      
May 25 07:56 5   Clear   68 48     49%     29.69 29.69      
May 25 06:56 3   Clear   64 45     50%     29.7 29.7      
May 25 05:56 WNW 9   Clear   62 43     50%     29.71 29.71      
May 25 04:56 3   Clear   59 41     51%     29.71 29.71      
May 25 03:56 SSW 3   Clear   51 41     68%     29.74 29.74      
May 25 02:56 3   Clear   46 45     96% 45   29.76 29.77      
May 25 01:56 ESE 8   Clear   48 46     93% 44   29.8 29.81      
May 25 00:56 SE 7   Clear   49 46     90% 46   29.84 29.85      
May 24 23:56 SE 7   Clear   52 44     74%     29.88 29.89      
May 24 22:56 Calm   Clear   57 34     42%     29.91 29.92      
May 24 21:56 3   Clear   58 34     40%     29.94 29.95      
May 24 20:56 3   Clear   59 33     37%     29.94 29.95      
May 24 19:56 5   Clear   60 33     36%     29.94 29.96      
May 24 18:56 7   Clear   61 31     32%     29.94 29.96      
May 24 17:56 WNW 6   Clear   62 28     27%     29.95 29.96      
May 24 16:56 WNW 7   Clear   63 27     25%     29.96 29.98      
May 24 15:56 6   Clear   65 26     23%     29.97 29.98      
May 24 14:56 N 10   Clear   63 29     28%     29.98 29.99      
May 24 13:56 NW 10   Clear   61 27     27%     30 30.01      
May 24 12:56 WNW 10   Clear   60 29     31%     30.02 30.04      
May 24 11:56 NNW 8   Clear   58 32     37%     30.04 30.06      
May 24 10:56 N 10   Clear   56 30     37%     30.05 30.07      
May 24 09:56 5   Clear   53 31     43%     30.05 30.08      
May 24 08:56 3   Clear   51 38     61%     30.06 30.08      
May 24 07:56 Calm   Clear   48 38     68%     30.05 30.07      
May 24 06:56 Calm   Clear   44 38     79%     30.04 30.06      
May 24 05:56 NE 3   Clear   39 36     89% 37   30.01 30.04      
May 24 04:56 Calm   Clear   39 36     89%     30 30.03      
May 24 03:56 Calm   Clear   39 36     89%     29.98 30.01      
May 24 02:56 Calm   Clear   41 36     82%     29.98 30.01      
May 24 01:56 Calm   Clear   42 36     79%     29.98 30      
May 24 00:56 Calm   Clear   43 36     76%     29.98 30      
May 23 23:56 Calm   Clear   44 37     76%     29.98 29.99      
May 23 22:56 NNE 3   Clear   45 35     68% 44   29.98 29.99      
May 23 21:56 Calm   Clear   44 38     79%     29.98 29.99      
May 23 20:56 N 6   Clear   48 36     63% 45   29.96 29.98      
May 23 19:56 N 8   Clear   50 36     58% 47   29.95 29.97      
May 23 18:56 N 11   Clear   52 37     57%     29.93 29.95      
May 23 17:56 N 17   Clear   54 39     57%     29.91 29.93      
May 23 16:56 N 13   Clear   53 45     74%     29.9 29.91      
May 23 15:56 NNW 13   Clear   52 46     80%     29.87 29.89      
May 23 14:56 NNW 14   Clear   52 46     80%     29.86 29.87      
May 23 13:56 NW 11   Clear   51 46     83%     29.85 29.86      
May 23 12:56 N 13   Clear   52 45     77%     29.83 29.85      
May 23 11:56 N 10   Clear   62 51     67%     29.81 29.81      
May 23 10:56 NW 11   Clear   62 51     67%     29.81 29.82      
May 23 09:56 NW 8   Clear   59 52     78%     29.82 29.82      
May 23 08:56 NW 8   Clear   57 53     87%     29.83 29.83      
May 23 07:56 NW 7   Clear   53 52     96%     29.83 29.83      
May 23 06:56 Calm   Clear   51 51     100%     29.82 29.82      
May 23 05:56 Calm   Clear   49 49     100%     29.8 29.81      
May 23 04:56 Calm   Clear   51 51     100%     29.8 29.8      
May 23 03:56 Calm   Clear   52 51     97%     29.81 29.81      
May 23 02:56 Calm   Clear   52 51     97%     29.83 29.83      
May 23 01:56 Calm   Clear   52 51     97%     29.84 29.84 0   0
May 23 00:56 Calm   Clear   52 51     97%     29.84 29.84 0    
May 22 23:56 5   Clear   54 49     83%     29.87 29.87      
May 22 22:56 SSW 10   Clear   55 48     77%     29.87 29.87      
May 22 21:56 6   Clear   56 48     75%     29.9 29.9      
May 22 20:56 S 5   Clear   57 48     72%     29.92 29.92      
May 22 19:56 6   Clear   60 44     55%     29.94 29.95      
May 22 18:56 SSW 8   Clear   64 43     46%     29.95 29.96      
May 22 16:56 S 7   Clear   66 40     38%     29.98 29.99      
May 15 06:56 SSE 3   Clear   57 47     69%     29.75 29.75      
May 13 14:56 S 9   Clear   65 23     20%     30.02 30.04      
May 13 09:56 3   Clear   56 26     31%     30.13 30.15      
May 12 18:56 NW 11   Clear   56 24     29%     30.01 30.03      
May 12 03:56 NNW 5   Clear   33 21     61% 29   30.11 30.15      
May 11 22:56 WNW 5   Clear   37 24     59% 33   30.08 30.12      
May 11 18:56 WNW 9   Clear   45 22     40% 40   30 30.03      
May 11 08:56     Clear   35 24     64%     29.85 29.88      
Jun 11 22:56 6   Clear   76 61     60%   76 29.85 29.82      
Jun 11 18:56 6   Clear   82 57     43%   82 29.78 29.76      
Jun 10 13:56 5   Clear   71 37     29%   69 29.9 29.9      
Jun 10 05:56 6   Clear   48 41     77% 45   29.84 29.85      
Notice The following observation data may not be complete
Jun 08 11:56     Clear            %              
Jun 06 08:56 ENE 6   Clear   48 39     71% 45   29.97 29.99      
Jun 06 06:56 E 9   Clear   44 39     82% 39   29.98 30      
Notice The following observation data may not be complete
Jun 06 02:56     Clear            %